Regional Weather Roundup
Issued by NWS

Home | Current Version | Previous Version | Text Only | Print | Product List | Glossary On
Versions: 1 2 3 4 5 6 7 8 9 10 11 12 13 14 15 16 17 18 19 20 21 22 23 24 25 26 27 28 29 30 31 32 33 34 35 36 37 38 39 40 41 42 43 44 45 46 47 48 49 50
000
ASUS44 KJAN 202210
RWRMS

MISSISSIPPI HOURLY WEATHER ROUNDUP
NATIONAL WEATHER SERVICE JACKSON MS
500 PM CDT WED SEP 20 2017

NOTE: "FAIR: INDICATES FEW OR NO CLOUDS BELOW 12,000 FEET WITH NO
SIGNIFICANT WEATHER AND/OR OBSTRUCTIONS TO VISIBILITY.

MSZ001>002-007>008-010>013-018>021-025>028-034>036-202300-
NORTHWEST MISSISSIPPI

CITY           SKY/WX    TMP DP  RH WIND       PRES   REMARKS
BATESVILLE     FAIR      90  72  55 S7        29.96S HX  96
CLARKSDALE       N/A     91  72  52 S8        29.94S HX  98
CLEVELAND      FAIR      91  70  50 S9        29.93F HX  95
GREENWOOD      CLOUDY    90  74  59 SW7       29.95S HX  99
GREENVILLE     MOSUNNY   90  68  48 SW7       29.93S HX  94
OLIVE BRANCH   PTSUNNY  N/A N/A N/A S10       29.94S
OXFORD         FAIR      88  70  55 SW7       29.97S HX  92
TUNICA           N/A     90  70  51 S7        29.94S HX  95
WINONA         FAIR      86  74  66 CALM      29.96S THUNDER HX  94
$$

MSZ003>006-009-014>017-022>024-029>033-037>039-202300-
NORTHEAST MISSISSIPPI

CITY           SKY/WX    TMP DP  RH WIND       PRES   REMARKS
COLUMBUS AFB   MOSUNNY   91  76  61 E6        29.95S HX 101
STARKVILLE     MOCLDY    82  72  69 SW5       29.98R
TUPELO         PTSUNNY   89  71  55 NE9       29.96S HX  95
$$

MSZ040-058-202300-
CENTRAL MISSISSIPPI

CITY           SKY/WX    TMP DP  RH WIND       PRES   REMARKS
JACKSON INTL   NOT AVBL
JACKSON HAWKNS LGT RAIN  73  72  96 W6        29.98F
MADISON        FAIR      72  68  88 CALM      29.98F
MERIDIAN KEY   CLOUDY    79  72  79 SW5       29.99S
MERIDIAN NAS   CLOUDY    83  75  77 SW3       29.97F HX  90
RAYMOND          N/A     75  70  83 VRB5G14   29.97S THUNDER
VICKSBURG VKS  CLEAR     88  73  62 S5        29.96S HX  96
$$

MSZ059>079-202300-
SOUTH MISSISSIPPI

CITY           SKY/WX    TMP DP  RH WIND       PRES   REMARKS
HATTIESBURG    MOSUNNY   87  75  67 SE6       29.96F HX  96
LAUREL         FAIR      87  71  58 NW18G26   29.98S HX  92
MCCOMB         CLOUDY    88  69  53 S5        29.96F HX  92
NATCHEZ        NOT AVBL
PINE BELT      MOSUNNY   90  74  59 NW6       29.98F HX  99
$$

MSZ080>082-202300-
COASTAL MISSISSIPPI

CITY           SKY/WX    TMP DP  RH WIND       PRES   REMARKS
BILOXI         CLOUDY    85  73  66 SW6       29.96F HX  92
PASCAGOULA     CLOUDY    84  74  71 SW5       29.96F HX  91
GULFPORT       CLOUDY    85  74  69 S7        29.95F HX  92
$$

LAZ007>009-015>016-023>026-202300-
NORTHEAST LOUISIANA

CITY           SKY/WX    TMP DP  RH WIND       PRES   REMARKS
BASTROP        FAIR      91  73  54 S5        29.94S HX  99
TALLULAH/VBURG MOSUNNY   89  75  63 NE7       29.94F HX  99
VIDALIA          N/A    N/A N/A N/A MISG      29.92F
$$



USA.gov is the U.S. government's official web portal to all federal, state and local government web resources and services.